FW5926 Weather Reports


time (UTC)temp
C
wind
direction
speed
KPH
gust
KPH
rain 1hr
cm
rain 24hr
cm
rain mn
cm
humidity
%
barometer
mb
20260506221604 12 299 9.7 19.3 0.00 0.10 0.00 42 1012.4
20260506221104 13 289 9.7 19.3 0.00 0.10 0.00 41 1012.3
20260506220604 12 284 6.4 12.9 0.00 0.10 0.00 42 1012.4
20260506220106 12 266 8.0 16.1 0.00 0.10 0.00 42 1012.4
20260506215604 13 340 11.3 19.3 0.00 0.10 0.00 40 1012.4
20260506214104 12 290 3.2 11.3 0.00 0.10 0.00 41 1012.3
20260506213605 12 268 8.0 16.1 0.00 0.10 0.00 40 1012.4
20260506212604 12 287 14.5 25.7 0.00 0.10 0.00 40 1012.3
20260506212104 12 327 9.7 25.7 0.00 0.10 0.00 42 1012.3
20260506211604 12 300 9.7 16.1 0.00 0.10 0.00 40 1012.2
20260506211104 12 329 12.9 19.3 0.00 0.10 0.00 42 1012.2
20260506210106 12 302 6.4 11.3 0.00 0.10 0.00 42 1012.1
20260506205604 12 290 4.8 12.9 0.00 0.10 0.00 43 1012.2
20260506204604 12 313 9.7 19.3 0.00 0.10 0.00 43 1012.2
20260506204105 12 294 4.8 12.9 0.00 0.10 0.00 41 1012.1
20260506203605 12 329 8.0 14.5 0.00 0.10 0.00 44 1012.1
20260506201604 12 284 8.0 14.5 0.00 0.10 0.00 42 1012.2
20260506201104 12 300 9.7 16.1 0.00 0.10 0.00 42 1012.3
20260506200604 12 305 6.4 16.1 0.00 0.10 0.00 42 1012.3
20260506200106 12 34 6.4 16.1 0.00 0.10 0.00 43 1012.2
20260506195604 12 0 8.0 14.5 0.00 0.10 0.00 42 1012.2
20260506195104 12 345 11.3 16.1 0.00 0.10 0.00 42 1012.3
20260506194604 12 338 11.3 19.3 0.00 0.10 0.00 43 1012.4
20260506194105 12 338 8.0 19.3 0.00 0.10 0.00 41 1012.3
20260506193605 12 0 4.8 19.3 0.00 0.10 0.00 41 1012.3
20260506192605 12 320 16.1 20.9 0.00 0.10 0.00 42 1012.5
20260506192104 12 305 9.7 22.5 0.00 0.10 0.00 44 1012.6
20260506191105 12 328 14.5 22.5 0.00 0.10 0.00 42 1012.7
20260506190604 12 334 14.5 25.7 0.00 0.10 0.00 43 1012.8
20260506190105 11 286 9.7 19.3 0.00 0.10 0.00 44 1012.8
20260506185604 11 278 8.0 19.3 0.00 0.10 0.00 44 1012.8
20260506185104 11 345 11.3 20.9 0.00 0.10 0.00 44 1012.8
20260506184604 11 315 9.7 19.3 0.00 0.10 0.00 44 1012.9
20260506184104 11 287 12.9 19.3 0.00 0.10 0.00 43 1012.7
20260506183604 11 304 8.0 19.3 0.00 0.10 0.00 44 1012.8
20260506183104 11 286 4.8 11.3 0.00 0.10 0.00 43 1012.7
20260506182604 11 324 9.7 22.5 0.00 0.10 0.00 42 1012.7
20260506182104 11 321 9.7 20.9 0.00 0.10 0.00 43 1012.6
20260506181604 11 340 9.7 22.5 0.00 0.10 0.00 45 1012.6
20260506181105 11 340 8.0 14.5 0.00 0.10 0.00 42 1012.4
20260506180604 11 315 11.3 19.3 0.00 0.10 0.00 42 1012.6
20260506180105 11 338 6.4 16.1 0.00 0.10 0.00 41 1012.7
20260506175104 11 347 11.3 20.9 0.00 0.10 0.00 42 1012.7
20260506174604 11 337 9.7 22.5 0.00 0.10 0.00 40 1012.8
20260506174104 11 333 12.9 24.1 0.00 0.10 0.00 41 1012.8
20260506173104 11 334 14.5 20.9 0.00 0.10 0.00 43 1013.0
20260506172604 11 319 11.3 19.3 0.00 0.10 0.00 43 1013.1
20260506172104 11 319 8.0 19.3 0.00 0.10 0.00 43 1013.1
20260506171104 11 324 11.3 24.1 0.00 0.10 0.00 44 1013.3
20260506170604 11 345 12.9 20.9 0.00 0.10 0.00 43 1013.2
20260506170105 11 322 11.3 16.1 0.00 0.10 0.00 43 1013.2
20260506165604 11 308 12.9 22.5 0.00 0.10 0.00 43 1013.3
20260506165104 11 297 9.7 19.3 0.00 0.10 0.00 43 1013.2
20260506164604 11 327 9.7 19.3 0.00 0.10 0.00 42 1013.1
20260506164105 11 342 11.3 20.9 0.00 0.10 0.00 42 1013.1
20260506162604 11 320 12.9 22.5 0.00 0.10 0.00 43 1013.0
20260506162104 11 291 11.3 24.1 0.00 0.10 0.00 42 1013.0
20260506161605 11 304 12.9 20.9 0.00 0.10 0.00 42 1013.0
20260506161104 11 309 14.5 27.4 0.00 0.10 0.00 42 1012.8
20260506160106 11 317 14.5 25.7 0.00 0.10 0.00 43 1012.8
20260506155104 11 298 16.1 22.5 0.00 0.10 0.00 42 1012.8
20260506154104 11 311 11.3 22.5 0.00 0.10 0.00 42 1012.6
20260506153604 11 324 17.7 25.7 0.00 0.10 0.00 42 1012.6
20260506153104 11 318 16.1 25.7 0.00 0.10 0.00 43 1012.5
20260506152104 11 332 9.7 22.5 0.00 0.10 0.00 47 1012.5
20260506151104 11 318 4.8 19.3 0.00 0.10 0.00 50 1012.4
20260506150604 11 313 12.9 20.9 0.00 0.10 0.00 50 1012.4
20260506150105 10 318 8.0 19.3 0.00 0.10 0.00 51 1012.3
20260506145604 10 339 11.3 19.3 0.00 0.10 0.00 49 1012.3
20260506144604 10 278 8.0 16.1 0.00 0.10 0.00 51 1012.1
20260506144104 10 325 9.7 16.1 0.00 0.10 0.00 52 1012.1
20260506143604 10 286 8.0 16.1 0.00 0.10 0.00 52 1012.1
20260506143104 10 305 9.7 22.5 0.00 0.10 0.00 53 1012.1
20260506142604 10 325 12.9 20.9 0.00 0.10 0.00 51 1011.8
20260506142104 10 311 11.3 22.5 0.00 0.10 0.00 51 1011.9
20260506141604 10 332 12.9 19.3 0.00 0.10 0.00 51 1012.1
20260506141104 10 330 9.7 14.5 0.00 0.10 0.00 52 1011.9
20260506140106 10 334 11.3 19.3 0.00 0.10 0.00 52 1012.1
20260506135604 10 328 11.3 19.3 0.00 0.10 0.00 53 1012.2
20260506135104 9 324 11.3 20.9 0.00 0.10 0.00 52 1011.9
20260506134604 9 294 9.7 19.3 0.00 0.10 0.00 53 1011.9
20260506134104 9 313 8.0 19.3 0.00 0.10 0.00 54 1011.8
20260506133603 9 316 9.7 16.1 0.00 0.10 0.00 53 1011.7
20260506133104 9 326 9.7 16.1 0.00 0.10 0.00 53 1011.7
20260506132604 9 28 11.3 22.5 0.00 0.10 0.00 53 1011.6
20260506132104 9 332 9.7 20.9 0.00 0.10 0.00 54 1011.6
20260506131604 9 353 12.9 19.3 0.00 0.10 0.00 54 1011.6
20260506130604 8 327 12.9 22.5 0.00 0.10 0.00 55 1011.4
20260506130105 8 352 9.7 19.3 0.00 0.10 0.00 58 1011.4
20260506125104 8 334 8.0 16.1 0.00 0.10 0.00 58 1011.4
20260506124604 8 3 8.0 16.1 0.00 0.10 0.00 58 1011.4
20260506124104 8 333 9.7 22.5 0.00 0.10 0.00 59 1011.3
20260506123604 8 311 9.7 19.3 0.00 0.10 0.00 61 1011.4
20260506121604 8 309 8.0 14.5 0.00 0.10 0.00 64 1010.9
20260506120604 7 326 9.7 14.5 0.00 0.10 0.00 65 1010.8
20260506115104 7 332 6.4 12.9 0.00 0.10 0.00 66 1010.5
20260506114604 7 322 4.8 9.7 0.00 0.10 0.00 68 1010.3
20260506113604 7 337 3.2 4.8 0.00 0.10 0.00 68 1010.6
20260506113104 7 329 3.2 4.8 0.00 0.10 0.00 68 1010.3
20260506112604 7 329 1.6 4.8 0.00 0.10 0.00 68 1010.2
20260506112104 7 329 1.6 4.8 0.00 0.10 0.00 67 1010.1
20260506111603 7 329 3.2 4.8 0.00 0.10 0.00 67 1010.1
20260506111104 7 325 3.2 4.8 0.00 0.10 0.00 68 1010.1
20260506110603 7 317 4.8 4.8 0.00 0.10 0.00 67 1010.1
20260506110105 7 330 4.8 4.8 0.00 0.10 0.00 66 1009.9
20260506105604 7 331 3.2 4.8 0.00 0.10 0.00 67 1009.8
20260506105104 7 331 4.8 8.0 0.00 0.10 0.00 67 1009.7
20260506104604 7 321 4.8 8.0 0.00 0.10 0.00 67 1009.7
20260506104104 7 330 3.2 8.0 0.00 0.10 0.00 67 1009.5
20260506103604 7 313 6.4 11.3 0.00 0.10 0.00 68 1009.4
20260506103104 7 313 4.8 11.3 0.00 0.10 0.00 68 1009.5
20260506102604 7 312 4.8 8.0 0.00 0.10 0.00 68 1009.6
20260506101604 7 321 4.8 8.0 0.00 0.10 0.00 68 1009.4
20260506101103 7 334 4.8 8.0 0.00 0.10 0.00 69 1009.4
20260506100105 7 320 3.2 8.0 0.00 0.10 0.00 68 1009.4
20260506095604 7 315 4.8 8.0 0.00 0.10 0.00 68 1009.3
20260506095104 7 319 4.8 8.0 0.00 0.10 0.00 68 1009.2
20260506093104 7 320 3.2 4.8 0.00 0.10 0.00 68 1009.2
20260506092604 7 321 3.2 4.8 0.00 0.10 0.00 67 1009.2
20260506091604 7 323 1.6 4.8 0.00 0.10 0.00 68 1009.2
20260506091104 7 323 3.2 8.0 0.00 0.10 0.00 68 1009.2
20260506085605 7 322 4.8 11.3 0.00 0.10 0.00 67 1009.2
20260506085105 7 317 8.0 11.3 0.00 0.10 0.00 68 1009.1
20260506084604 7 332 4.8 9.7 0.00 0.10 0.00 69 1008.8
20260506083103 7 312 4.8 4.8 0.00 0.10 0.00 71 1008.7
20260506082604 7 314 3.2 8.0 0.00 0.10 0.00 72 1008.7
20260506082104 7 331 3.2 8.0 0.00 0.10 0.00 73 1008.9
20260506081604 7 321 3.2 8.0 0.00 0.10 0.00 74 1008.7
20260506081104 7 298 3.2 4.8 0.00 0.10 0.00 75 1008.9
20260506073105 7 279 1.6 3.2 0.00 0.10 0.00 84 1008.6
20260506072604 7 279 1.6 1.6 0.00 0.10 0.00 84 1008.6
20260506072104 7 279 1.6 4.8 0.00 0.10 0.00 84 1008.6
20260506071604 7 279 3.2 4.8 0.00 0.10 0.00 84 1008.9
20260506071104 7 279 3.2 4.8 0.00 0.10 0.00 85 1008.9
20260506070604 7 279 3.2 4.8 0.00 0.10 0.00 85 1009.0
20260506070105 7 279 1.6 4.8 0.00 0.10 0.00 85 1009.0
20260506062104 7 279 1.6 4.8 0.00 0.10 0.00 85 1009.1
20260506061605 7 279 0.0 3.2 0.00 0.10 0.00 85 1009.2
20260506061105 7 279 1.6 3.2 0.00 0.10 0.00 85 1009.3
20260506060604 7 279 1.6 3.2 0.00 0.10 0.00 85 1009.3
20260506060105 7 279 1.6 4.8 0.00 0.10 0.00 85 1009.4
20260506051104 7 279 1.6 3.2 0.00 0.13 0.00 85 1009.2
20260506050604 7 279 1.6 3.2 0.00 0.13 0.00 85 1009.2
20260506050105 7 279 1.6 4.8 0.00 0.13 0.00 85 1009.3
20260506045104 7 279 1.6 4.8 0.00 0.13 0.00 85 1009.3
20260506044604 7 279 1.6 4.8 0.00 0.15 0.00 85 1009.4
20260506043604 7 279 1.6 4.8 0.00 0.18 0.00 85 1009.5
20260506043104 7 279 3.2 4.8 0.00 0.18 0.00 85 1009.3
20260506042604 7 280 1.6 4.8 0.00 0.20 0.00 85 1009.3
20260506042104 7 280 1.6 4.8 0.00 0.20 0.00 85 1009.4
20260506041605 7 298 1.6 4.8 0.00 0.23 0.00 85 1009.3
20260506041104 7 298 1.6 3.2 0.00 0.23 0.00 84 1009.3
20260506040604 7 298 1.6 3.2 0.00 0.23 0.00 85 1009.2
20260506040106 7 298 1.6 3.2 0.00 0.23 0.00 85 1009.2
20260506035103 7 298 1.6 3.2 0.00 0.30 0.23 84 1009.3
20260506034604 7 298 1.6 4.8 0.00 0.30 0.23 84 1009.2
20260506033604 7 298 1.6 4.8 0.00 0.33 0.23 84 1009.3
20260506033105 7 298 1.6 4.8 0.00 0.36 0.23 84 1009.2
20260506032604 7 298 1.6 4.8 0.00 0.36 0.23 84 1009.1
20260506031604 7 298 1.6 3.2 0.00 0.36 0.23 83 1008.9
20260506030106 7 298 3.2 4.8 0.00 0.36 0.23 84 1008.9
20260506025604 7 298 1.6 4.8 0.00 0.36 0.23 83 1008.9
20260506025104 7 298 1.6 3.2 0.00 0.36 0.23 83 1008.8
20260506024604 7 298 1.6 3.2 0.00 0.36 0.23 83 1008.8
20260506024104 7 298 0.0 3.2 0.00 0.36 0.23 83 1008.9
20260506023604 7 298 0.0 1.6 0.00 0.36 0.23 83 1008.9
20260506023104 7 298 0.0 0.0 0.03 0.36 0.23 83 1008.9
20260506022604 7 298 1.6 3.2 0.03 0.36 0.23 83 1009.0
20260506021604 7 298 0.0 1.6 0.03 0.36 0.23 82 1009.0
20260506021104 7 298 0.0 3.2 0.03 0.36 0.23 82 1008.9
20260506020604 7 298 0.0 3.2 0.03 0.36 0.23 82 1008.8
20260506020105 8 298 0.0 1.6 0.03 0.36 0.23 82 1008.9
20260506015104 8 298 0.0 3.2 0.05 0.36 0.23 81 1008.9
20260506014605 8 298 1.6 3.2 0.08 0.36 0.23 80 1008.8
20260506014105 8 298 0.0 3.2 0.08 0.36 0.23 80 1009.0
20260506013604 8 298 0.0 1.6 0.08 0.36 0.23 79 1008.9
20260506013103 8 298 1.6 3.2 0.05 0.33 0.20 78 1008.7
20260506012104 8 298 3.2 4.8 0.08 0.33 0.20 76 1008.6
20260506011604 8 298 3.2 4.8 0.08 0.33 0.20 76 1008.6
20260506010603 9 298 1.6 4.8 0.08 0.33 0.20 73 1008.3
20260506010105 9 311 1.6 4.8 0.08 0.33 0.20 71 1008.4
20260506005605 10 311 3.2 4.8 0.05 0.30 0.18 69 1008.3
20260506005104 10 317 1.6 4.8 0.05 0.30 0.18 69 1008.4
20260506004105 10 317 1.6 4.8 0.03 0.28 0.15 64 1008.4
20260506003604 10 318 3.2 4.8 0.03 0.28 0.15 62 1008.4
20260506003104 10 348 6.4 11.3 0.03 0.28 0.15 60 1008.3
20260506002104 11 324 3.2 8.0 0.00 0.25 0.13 61 1008.4
20260506001604 11 333 4.8 4.8 0.00 0.25 0.13 60 1008.4
20260506001104 11 334 3.2 8.0 0.00 0.25 0.13 60 1008.4
20260506000604 11 299 4.8 9.7 0.00 0.25 0.13 62 1008.3
20260506000106 11 334 3.2 4.8 0.00 0.25 0.13 63 1008.3
20260505235604 11 333 3.2 8.0 0.00 0.25 0.13 62 1008.3
20260505234604 11 318 4.8 8.0 0.00 0.25 0.13 61 1008.2
20260505234104 11 309 3.2 4.8 0.00 0.25 0.13 60 1008.2
20260505233605 11 311 8.0 12.9 0.00 0.25 0.13 60 1008.0
20260505233104 11 300 3.2 4.8 0.00 0.25 0.13 62 1007.9
20260505232104 11 311 4.8 11.3 0.00 0.25 0.13 61 1007.8
20260505231604 11 285 3.2 9.7 0.00 0.25 0.13 62 1007.7
20260505230604 11 332 1.6 4.8 0.00 0.25 0.13 64 1007.7
20260505225604 11 307 4.8 8.0 0.00 0.25 0.13 65 1007.7
20260505225104 11 318 4.8 8.0 0.00 0.25 0.13 68 1007.7
20260505224604 11 279 4.8 9.7 0.00 0.25 0.13 68 1007.8
20260505223604 11 298 4.8 9.7 0.00 0.25 0.13 68 1007.8
20260505223104 11 285 8.0 12.9 0.00 0.28 0.13 67 1007.8
20260505222604 11 304 3.2 4.8 0.00 0.30 0.13 67 1007.8
20260505222104 11 321 4.8 11.3 0.00 0.30 0.13 66 1007.8